Time,TemperatureF,DewpointF,PressureIn,WindDirection,WindDirectionDegrees,WindSpeedMPH,WindSpeedGustMPH,Humidity,HourlyPrecipIn,Conditions,Clouds,dailyrainin,SoftwareType,DateUTC
2013-09-24 00:04:00,59.5,50.5,29.94,North,0,0.0,0.0,72,0.00,,,0.00,WUHU21623XXSP,2013-09-24 05:04:00,
2013-09-24 00:09:00,59.2,50.2,29.94,North,0,0.0,0.0,72,0.00,,,0.00,WUHU21623XXSP,2013-09-24 05:09:00,
2013-09-24 00:14:00,58.8,49.8,29.95,North,0,0.0,0.0,72,0.00,,,0.00,WUHU21623XXSP,2013-09-24 05:14:00,
2013-09-24 00:19:00,58.8,49.8,29.95,North,0,0.0,0.0,72,0.00,,,0.00,WUHU21623XXSP,2013-09-24 05:19:00,
2013-09-24 00:24:00,58.8,50.2,29.95,North,0,0.0,0.0,73,0.00,,,0.00,WUHU21623XXSP,2013-09-24 05:24:00,
2013-09-24 00:29:00,58.6,50.4,29.94,North,0,0.0,0.0,74,0.00,,,0.00,WUHU21623XXSP,2013-09-24 05:29:00,
2013-09-24 00:34:00,58.5,50.4,29.94,North,0,0.0,0.0,74,0.00,,,0.00,WUHU21623XXSP,2013-09-24 05:34:00,
2013-09-24 00:39:00,58.1,49.6,29.94,North,0,0.0,0.0,74,0.00,,,0.00,WUHU21623XXSP,2013-09-24 05:39:00,
2013-09-24 00:44:00,57.9,49.6,29.94,North,0,0.0,0.0,74,0.00,,,0.00,WUHU21623XXSP,2013-09-24 05:44:00,
2013-09-24 00:49:00,57.9,49.6,29.94,North,0,0.0,0.0,74,0.00,,,0.00,WUHU21623XXSP,2013-09-24 05:49:00,
2013-09-24 00:55:00,57.6,49.6,29.94,North,0,0.0,0.0,75,0.00,,,0.00,WUHU21623XXSP,2013-09-24 05:55:00,
2013-09-24 01:00:00,57.6,49.6,29.94,North,0,0.0,0.0,75,0.00,,,0.00,WUHU21623XXSP,2013-09-24 06:00:00,
2013-09-24 01:05:00,57.4,49.8,29.94,North,0,0.0,0.0,76,0.00,,,0.00,WUHU21623XXSP,2013-09-24 06:05:00,
2013-09-24 01:10:00,57.2,49.8,29.94,North,0,0.0,0.0,76,0.00,,,0.00,WUHU21623XXSP,2013-09-24 06:10:00,
2013-09-24 01:15:00,57.0,49.5,29.94,North,0,0.0,0.0,77,0.00,,,0.00,WUHU21623XXSP,2013-09-24 06:15:00,
2013-09-24 01:20:00,57.0,49.8,29.94,North,0,0.0,0.0,77,0.00,,,0.00,WUHU21623XXSP,2013-09-24 06:20:00,
2013-09-24 01:25:00,56.8,49.6,29.94,North,0,0.0,0.0,77,0.00,,,0.00,WUHU21623XXSP,2013-09-24 06:25:00,
2013-09-24 01:30:00,56.5,49.3,29.94,North,0,0.0,0.0,78,0.00,,,0.00,WUHU21623XXSP,2013-09-24 06:30:00,
2013-09-24 01:35:00,56.5,49.6,29.94,North,0,0.0,0.0,78,0.00,,,0.00,WUHU21623XXSP,2013-09-24 06:35:00,
2013-09-24 01:40:00,56.1,49.3,29.94,North,0,0.0,0.0,78,0.00,,,0.00,WUHU21623XXSP,2013-09-24 06:40:00,
2013-09-24 01:45:00,55.9,49.3,29.94,North,0,0.0,0.0,79,0.00,,,0.00,WUHU21623XXSP,2013-09-24 06:45:00,
2013-09-24 01:50:00,55.9,49.5,29.94,North,0,0.0,0.0,79,0.00,,,0.00,WUHU21623XXSP,2013-09-24 06:50:00,
2013-09-24 01:55:00,55.8,49.3,29.94,North,0,0.0,0.0,79,0.00,,,0.00,WUHU21623XXSP,2013-09-24 06:55:00,
2013-09-24 02:00:00,55.6,49.1,29.94,North,0,0.0,0.0,79,0.00,,,0.00,WUHU21623XXSP,2013-09-24 07:00:00,
2013-09-24 02:05:00,55.6,49.5,29.94,North,0,0.0,0.0,80,0.00,,,0.00,WUHU21623XXSP,2013-09-24 07:05:00,
2013-09-24 02:10:00,55.2,49.1,29.94,North,0,0.0,0.0,80,0.00,,,0.00,WUHU21623XXSP,2013-09-24 07:10:00,
2013-09-24 02:15:00,55.2,49.1,29.94,North,0,0.0,0.0,80,0.00,,,0.00,WUHU21623XXSP,2013-09-24 07:15:00,
2013-09-24 02:20:00,55.2,49.1,29.93,North,0,0.0,0.0,80,0.00,,,0.00,WUHU21623XXSP,2013-09-24 07:20:00,
2013-09-24 02:25:00,55.2,49.4,29.93,North,0,0.0,0.0,81,0.00,,,0.00,WUHU21623XXSP,2013-09-24 07:25:00,
2013-09-24 02:30:00,55.2,49.4,29.93,North,0,0.0,0.0,81,0.00,,,0.00,WUHU21623XXSP,2013-09-24 07:30:00,
2013-09-24 02:35:00,55.2,49.4,29.93,North,0,0.0,0.0,81,0.00,,,0.00,WUHU21623XXSP,2013-09-24 07:35:00,
2013-09-24 02:40:00,55.2,49.4,29.93,North,0,0.0,0.0,81,0.00,,,0.00,WUHU21623XXSP,2013-09-24 07:40:00,
2013-09-24 02:45:00,55.2,49.4,29.93,North,0,0.0,0.0,81,0.00,,,0.00,WUHU21623XXSP,2013-09-24 07:45:00,
2013-09-24 02:50:00,55.2,49.4,29.93,North,0,0.0,0.0,80,0.00,,,0.00,WUHU21623XXSP,2013-09-24 07:50:00,
2013-09-24 02:55:00,55.2,49.1,29.93,North,0,0.0,0.0,80,0.00,,,0.00,WUHU21623XXSP,2013-09-24 07:55:00,
2013-09-24 03:00:00,55.4,49.3,29.93,North,0,0.0,0.0,80,0.00,,,0.00,WUHU21623XXSP,2013-09-24 08:00:00,
2013-09-24 03:05:00,55.4,49.3,29.92,North,0,0.0,0.0,80,0.00,,,0.00,WUHU21623XXSP,2013-09-24 08:05:00,
2013-09-24 03:10:00,55.6,49.5,29.92,North,0,0.0,0.0,80,0.00,,,0.00,WUHU21623XXSP,2013-09-24 08:10:00,
2013-09-24 03:15:00,55.6,49.5,29.92,North,0,0.0,0.0,80,0.00,,,0.00,WUHU21623XXSP,2013-09-24 08:15:00,
2013-09-24 03:20:00,55.8,49.6,29.92,North,0,0.0,0.0,80,0.00,,,0.00,WUHU21623XXSP,2013-09-24 08:20:00,
2013-09-24 03:25:00,55.8,49.6,29.92,North,0,0.0,0.0,80,0.00,,,0.00,WUHU21623XXSP,2013-09-24 08:25:00,
2013-09-24 03:30:00,55.8,49.6,29.92,North,0,0.0,0.0,80,0.00,,,0.00,WUHU21623XXSP,2013-09-24 08:30:00,
2013-09-24 03:35:00,55.8,49.6,29.92,North,0,0.0,0.0,80,0.00,,,0.00,WUHU21623XXSP,2013-09-24 08:35:00,
2013-09-24 03:40:00,55.8,49.3,29.92,North,0,0.0,0.0,79,0.00,,,0.00,WUHU21623XXSP,2013-09-24 08:40:00,
2013-09-24 03:45:00,55.8,49.3,29.92,North,0,0.0,0.0,79,0.00,,,0.00,WUHU21623XXSP,2013-09-24 08:45:00,
2013-09-24 03:50:00,55.6,49.1,29.92,North,0,0.0,0.0,79,0.00,,,0.00,WUHU21623XXSP,2013-09-24 08:50:00,
2013-09-24 03:55:00,55.6,49.1,29.92,North,0,0.0,0.0,79,0.00,,,0.00,WUHU21623XXSP,2013-09-24 08:55:00,
2013-09-24 04:00:00,55.4,49.1,29.92,North,0,0.0,0.0,80,0.00,,,0.00,WUHU21623XXSP,2013-09-24 09:00:00,
2013-09-24 04:05:00,55.4,49.3,29.92,North,0,0.0,0.0,80,0.00,,,0.00,WUHU21623XXSP,2013-09-24 09:05:00,
2013-09-24 13:48:00,80.6,59.6,29.83,North,0,0.0,0.0,49,0.00,,,0.00,WUHU21623XXSP,2013-09-24 18:48:00,
2013-09-24 13:53:00,80.4,59.5,29.83,North,0,0.0,0.0,49,0.00,,,0.00,WUHU21623XXSP,2013-09-24 18:53:00,
2013-09-24 13:58:00,80.4,59.5,29.82,North,0,0.0,0.0,49,0.00,,,0.00,WUHU21623XXSP,2013-09-24 18:58:00,
2013-09-24 14:03:00,80.6,59.5,29.82,North,0,0.0,0.0,49,0.00,,,0.00,WUHU21623XXSP,2013-09-24 19:03:00,
2013-09-24 23:20:00,65.3,61.3,29.83,North,0,0.0,0.0,87,0.00,,,0.00,WUHU21623XXSP,2013-09-25 04:20:00,
2013-09-24 23:23:00,65.3,61.3,29.83,North,0,0.0,0.0,87,0.00,,,0.00,WUHU21623XXSP,2013-09-25 04:23:00,
2013-09-24 23:25:00,65.3,61.3,29.83,North,0,0.0,0.0,87,0.00,,,0.00,WUHU21623XXSP,2013-09-25 04:25:00,
2013-09-24 23:30:00,65.3,61.3,29.83,North,0,0.0,0.0,87,0.00,,,0.00,WUHU21623XXSP,2013-09-25 04:30:00,
2013-09-24 23:35:00,65.3,61.3,29.83,North,0,0.0,0.0,87,0.00,,,0.00,WUHU21623XXSP,2013-09-25 04:35:00,
2013-09-24 23:40:00,65.3,61.3,29.82,North,0,0.0,0.0,87,0.00,,,0.00,WUHU21623XXSP,2013-09-25 04:40:00,
2013-09-24 23:45:00,65.3,61.3,29.82,North,0,0.0,0.0,87,0.00,,,0.00,WUHU21623XXSP,2013-09-25 04:45:00,
2013-09-24 23:48:00,65.3,61.3,29.82,North,0,0.0,0.0,87,0.00,,,0.00,WUHU21623XXSP,2013-09-25 04:48:00,
2013-09-24 23:53:00,65.3,61.3,29.83,North,0,0.0,0.0,87,0.00,,,0.00,WUHU21623XXSP,2013-09-25 04:53:00,
2013-09-24 23:58:00,65.3,61.3,29.83,North,0,0.0,0.0,87,0.00,,,0.00,WUHU21623XXSP,2013-09-25 04:58:00,